軌道要素
Epoch 2002 Feb. 15.0 TT = JDT 2452320.5
T 2002 Feb. 7.2056 TT MPCN
q 1.034134 (2000.0) P Q
n 0.1459809 Peri. 323.6418 +0.9944023 -0.0965799
a 3.572225 Node 41.9642 +0.1055698 +0.8914350
e 0.710507 Incl. 3.6744 +0.0043606 +0.4427368
P 6.75
From 60 observations 1967-2002, mean residual 1".2. Nongravitational
parameters A1 = +0.10, A2 = +0.0185.
|